Flag for Turkmenistan Weather past 2 weeks in Ashgabat, Turkmenistan

Now
81 °F

Clear.


Feels Like: 79 °F
Forecast: 68 / 98 °F
Wind: 1 mph from North

Location: Ashgabat

Current Time: Aug 28, 2014 at 1:58:58 AM

Latest Report: Aug 28, 2014 at 1:00 AM


Visibility: N/A

Pressure: 29.86 "Hg

Humidity: 21%

Dew point: 37 °F

Location of AshgabatLocation

Historic Weather in Ashgabat — Graph

°F

Ashgabat temperature yesterday

Maximum temperature yesterday: 100 °F (at 3:00 PM)
Minimum temperature yesterday: 70 °F (at 6:30 AM)
Average temperature yesterday: 88 °F

Past Weeks' High & Low Weather Summary

 TemperatureHumidityPressure
High106 °F (Aug 20, 5:00 PM)45% (Aug 13, 7:00 AM)30.01 "Hg (Aug 13, 7:00 AM)
Low70 °F (Aug 16, 4:00 AM)6% (Aug 20, 3:00 PM)29.71 "Hg (Aug 13, 12:00 AM)
Average91 °F19%29.84 "Hg
* Reported Midnight between Aug 12 and Aug 13 — Midnight between Aug 27 and Aug 28, Ashgabat, Weather by CustomWeather, © 2014

Note: Actual official high and low records may vary slightly from our data, if they occured in-between our weather recording intervals... More about our weather records

Advertising

Ashgabat weather history for previous 24 hours

 ConditionsComfort  
Time TempWeatherWind HumidityBarometerVisibility
12:00 AM
Aug 28
81 °FClear.3 mph21%29.86 "Hg3 mi
11:00 PM
Aug 27
82 °FClear.3 mph19%29.89 "Hg2 mi
10:00 PM86 °FClear.1 mph14%29.86 "Hg3 mi
9:00 PM90 °FClear.3 mph13%29.86 "Hg5 mi
8:00 PM93 °FSunny.1 mph11%29.86 "HgN/A
7:00 PM99 °FSunny.3 mph7%29.83 "HgN/A
6:30 PM99 °FSunny.3 mph7%29.86 "HgN/A
6:00 PM100 °FSunny.6 mph7%29.86 "HgN/A
5:30 PM100 °FSunny.6 mph7%29.86 "HgN/A
5:00 PM100 °FSunny.6 mph7%29.86 "HgN/A
4:30 PM100 °FSunny.6 mph7%29.86 "HgN/A
4:00 PM100 °FSunny.6 mph7%29.86 "HgN/A
3:30 PM100 °FSunny.6 mph7%29.86 "HgN/A
3:00 PM100 °FSunny.6 mph7%29.89 "HgN/A
2:00 PM99 °FSunny.3 mph8%29.89 "HgN/A
1:30 PM99 °FSunny.6 mph9%29.92 "HgN/A
1:00 PM99 °FSunny.3 mph9%29.92 "HgN/A
12:00 PM97 °FSunny.6 mph11%29.92 "HgN/A
11:00 AM93 °FSunny.6 mph13%29.95 "HgN/A
10:00 AM90 °FSunny.No wind15%29.92 "HgN/A
9:00 AM86 °FSunny.1 mph18%29.92 "HgN/A
8:00 AM79 °FSunny.3 mph24%29.95 "HgN/A
7:30 AM77 °FClear.3 mph26%29.92 "HgN/A
7:00 AM73 °FClear.3 mph33%29.92 "HgN/A
6:30 AM70 °FClear.6 mph35%29.92 "HgN/A
6:00 AM72 °FClear.3 mph33%29.92 "Hg5 mi
5:30 AM75 °FClear.3 mph29%29.92 "Hg2 mi
5:00 AM75 °FClear.1 mph27%29.92 "Hg1 mi
4:30 AM77 °FClear.3 mph26%29.89 "Hg3 mi
4:00 AM77 °FClear.3 mph28%29.89 "Hg6 mi
3:00 AM77 °FClear.3 mph30%29.92 "Hg2 mi
2:00 AM81 °FClear.1 mph30%29.92 "Hg2 mi
1:00 AM79 °FClear.3 mph28%29.92 "Hg4 mi
Weather by CustomWeather, © 2014

See weather overviewHow to use our weather pages